[[{"header":{"parameterUnit":"m.s-1","parameterCategory":2,"la1":30.2991,"la2":30.254,"lo1":-89.0895,"lo2":-89.0444,"dy":0.0017,"dx":0.0017,"nx":28,"ny":28,"refTime":"2025-07-24T21:00:00:Z","depth":"0","parameterNumber":2,"parameterNumberName":"U-component_of_CURRENTS"},"data":[0,0,0,0,0,0,0,0,0,0,0,0,0,0,0,0,0,0,0,0,0,0,0,0,0,0,0,0,0,0,0,0,0,0,0,0,0,0,0,0,0,0,0,0,0,0,0,0,0,0,0,0,0,0,0,0,0,0,-0.3522,-0.3526,0,-0.382,-0.3822,-0.3825,-0.3997,-0.3999,-0.4,-0.4002,-0.4231,-0.4235,-0.4239,0,0,0,0,0,0,0,0,0,0,0,0,0,-0.313,-0.3135,-0.3521,-0.3526,-0.3531,-0.3819,-0.3822,-0.3825,-0.3997,-0.3999,-0.4001,-0.4003,-0.4229,-0.4234,-0.424,0,0,0,0,0,0,0,0,0,0,0,0,0,-0.334,-0.3137,-0.3521,-0.3659,-0.3676,-0.3819,-0.3822,-0.3826,-0.3996,-0.3999,-0.4001,-0.4004,-0.4227,-0.4234,-0.4241,-0.4231,0,0,-0.4261,-0.4264,0,0,0,0,0,0,0,0,-0.3328,-0.3353,-0.3634,-0.365,-0.3669,-0.3884,-0.3769,-0.3962,-0.3996,-0.3863,-0.4002,-0.4005,-0.4113,-0.413,-0.4165,-0.4242,-0.4252,-0.4262,-0.4266,-0.4269,-0.4271,0,0,0,0,0,0,0,-0.3313,-0.3342,-0.3628,-0.3639,-0.3661,-0.3718,-0.3749,-0.3806,-0.396,-0.3875,-0.3891,-0.3941,-0.4121,-0.4158,-0.4172,-0.4255,-0.4262,-0.4268,-0.4272,-0.4274,-0.427,-0.4266,0,0,0,0,0,0,-0.3296,-0.3328,-0.3619,-0.3638,-0.3514,-0.3723,-0.3758,-0.3803,-0.3962,-0.3992,-0.3938,-0.3948,-0.4145,-0.4164,-0.418,-0.4161,-0.4269,-0.4275,-0.4279,-0.4274,-0.4269,-0.4265,0,0,0,0,0,0,-0.3286,-0.3318,-0.3607,-0.3499,-0.3541,-0.3728,-0.3777,-0.3808,-0.3847,-0.4013,-0.404,-0.3948,-0.4148,-0.4171,-0.4204,-0.4172,-0.4278,-0.4284,-0.4279,-0.4273,-0.4267,-0.4134,0,0,0,0,0,0,-0.3273,-0.3312,-0.3295,-0.3497,-0.3547,-0.3664,-0.3777,-0.3812,-0.388,-0.3895,-0.403,-0.4055,-0.4152,-0.4192,-0.421,-0.4184,-0.429,-0.4284,-0.4276,-0.4269,-0.4144,-0.4124,-0.4108,0,0,0,0,0,-0.3257,-0.3229,-0.3292,-0.3326,-0.3531,-0.3664,-0.369,-0.3826,-0.3877,-0.3872,-0.3957,-0.4051,-0.4155,-0.4195,-0.4217,-0.4192,-0.4288,-0.4278,-0.4269,-0.4152,-0.4128,-0.4108,0,0,0,0,0,0,-0.3065,-0.3252,-0.3324,-0.3358,-0.3491,-0.3697,-0.3692,-0.3801,-0.3866,-0.3868,-0.4014,-0.4042,-0.4064,-0.4116,-0.4157,-0.4155,-0.4229,-0.4224,-0.4132,-0.4111,-0.4093,-0.4073,-0.4295,0,0,0,0,0,-0.3012,-0.3031,-0.3238,-0.3262,-0.3308,-0.3491,-0.3548,-0.3658,-0.3772,-0.3805,-0.3912,-0.3985,-0.4038,-0.4066,-0.4127,-0.4123,-0.4119,-0.4107,-0.4089,-0.4074,-0.4063,-0.4007,-0.3984,-0.4234,-0.4234,-0.4234,0,0,-0.2959,-0.3052,-0.3074,-0.3219,-0.3316,-0.3387,-0.3526,-0.3606,-0.3663,-0.3813,-0.3862,-0.3936,-0.4021,-0.4035,-0.4044,-0.4078,-0.3988,-0.4062,-0.4049,-0.4047,-0.3995,-0.3971,-0.395,-0.4227,-0.4229,-0.423,0,0,-0.2878,-0.2924,-0.293,-0.3015,-0.3161,-0.3271,-0.3287,-0.3479,-0.3537,-0.3615,-0.3717,-0.375,-0.3863,-0.3904,-0.3941,-0.3838,-0.3901,-0.3857,-0.3753,-0.3697,-0.3677,-0.366,-0.3579,-0.3555,-0.3839,-0.3838,-0.3838,0,-0.2805,-0.2864,-0.2949,-0.2984,-0.3051,-0.321,-0.3258,-0.3326,-0.3509,-0.3534,-0.3605,-0.3713,-0.3798,-0.3786,-0.3772,-0.3803,-0.3775,-0.3845,-0.3676,-0.3659,-0.3643,-0.3565,-0.3541,-0.3831,-0.3832,-0.3833,-0.3833,0,-0.2772,-0.2805,-0.28,-0.2899,-0.2953,-0.3012,-0.3148,-0.3185,-0.3283,-0.3383,-0.341,-0.3507,-0.3576,-0.3591,-0.3678,-0.3596,-0.361,-0.3671,-0.3741,-0.3611,-0.3535,-0.3512,-0.382,-0.3823,-0.3825,-0.3827,0,0,-0.2683,-0.2768,-0.2772,-0.281,-0.2923,-0.2986,-0.3001,-0.3094,-0.3116,-0.3211,-0.3235,-0.33,-0.3358,-0.3396,-0.3469,-0.3427,-0.3303,-0.3503,-0.3503,-0.3437,-0.315,-0.3077,-0.3046,-0.3343,-0.3339,-0.3336,-0.3127,0,-0.2656,-0.2696,-0.2748,-0.2787,-0.2826,-0.2917,-0.2935,-0.3006,-0.3079,-0.3119,-0.3152,-0.3208,-0.3276,-0.3323,-0.3276,-0.3346,-0.3244,-0.3353,-0.3274,-0.3271,-0.3235,-0.3017,-0.2938,-0.2738,-0.3105,-0.3102,-0.3099,0,-0.2634,-0.2666,-0.2698,-0.2764,-0.2786,-0.2814,-0.2863,-0.2909,-0.2945,-0.3,-0.3001,-0.3072,-0.3044,-0.3128,-0.3051,-0.3123,-0.3102,-0.3112,-0.3105,-0.3073,-0.3155,-0.2934,-0.2684,-0.2685,-0.3065,-0.3067,-0.307,0,-0.2568,-0.2635,-0.2654,-0.2682,-0.2768,-0.2772,-0.2815,-0.286,-0.2893,-0.2914,-0.2944,-0.2914,-0.2942,-0.289,-0.2935,-0.2991,-0.2838,-0.292,-0.2783,-0.2778,-0.2711,-0.2706,-0.2469,-0.2773,-0.2773,-0.2774,-0.2775,0,-0.2535,-0.2549,-0.2623,-0.2636,-0.2648,-0.2721,-0.273,-0.2768,-0.2813,-0.2834,-0.2872,-0.2871,-0.2892,-0.2846,-0.2847,-0.2729,-0.2743,-0.2697,-0.2695,-0.2655,-0.2648,-0.2655,-0.2717,-0.2766,-0.2768,-0.2769,-0.2771,0,-0.2454,-0.2512,-0.2532,-0.26,-0.2617,-0.262,-0.2688,-0.2711,-0.2754,-0.2778,-0.2786,-0.2816,-0.275,-0.2721,-0.2656,-0.2616,-0.2478,-0.2471,-0.2408,-0.24,-0.2277,-0.2336,-0.2108,-0.2041,-0.2251,-0.2247,-0.2244,0,-0.2414,-0.2418,-0.2478,-0.2494,-0.2519,-0.2547,-0.2583,-0.2661,-0.2703,-0.2745,-0.276,-0.2701,-0.2641,-0.2469,-0.239,-0.2245,-0.2307,-0.2099,-0.2175,-0.2179,-0.2245,-0.2307,-0.2274,-0.2016,-0.2012,-0.2008,-0.2005,0,-0.232,-0.234,-0.2357,-0.24,-0.2434,-0.2492,-0.2553,-0.2577,-0.268,-0.266,-0.2635,-0.2568,-0.2415,-0.224,-0.2076,-0.2002,-0.2064,-0.2016,-0.2032,-0.2011,-0.2049,-0.2017,-0.225,-0.1972,-0.1975,-0.1978,-0.1979,-0.1981,-0.2225,-0.221,-0.225,-0.2298,-0.2356,-0.2445,-0.2382,-0.247,-0.2473,-0.2396,-0.2497,-0.2315,-0.2201,-0.1943,-0.1848,-0.1697,-0.178,-0.1679,-0.1735,-0.1786,-0.1749,-0.1883,-0.1617,-0.1618,-0.1619,-0.162,-0.1621,0,-0.2107,-0.2127,-0.216,-0.222,-0.2262,-0.2316,-0.2358,-0.2241,-0.214,-0.2125,-0.2037,-0.1993,-0.1821,-0.1712,-0.1575,-0.1477,-0.1457,-0.1451,-0.1535,-0.1502,-0.1604,-0.1625,-0.1334,-0.1334,-0.1334,-0.1334,-0.1334,-0.1334,-0.2038,-0.2043,-0.2095,-0.2139,-0.2144,-0.204,-0.1982,-0.1832,-0.172,-0.1534,-0.1463,-0.1423,-0.1521,-0.1662,-0.1527,-0.143,-0.142,-0.1365,-0.1388,-0.152,-0.1548,-0.1575,-0.1604,-0.1314,-0.1314,-0.1236,-0.1236,-0.1236]},{"header":{"parameterUnit":"m.s-1","parameterCategory":2,"la1":30.2991,"la2":30.254,"lo1":-89.0895,"lo2":-89.0444,"dy":0.0017,"dx":0.0017,"nx":28,"ny":28,"refTime":"2025-07-24T21:00:00:Z","depth":"0","parameterNumber":3,"parameterNumberName":"V-component_of_CURRENTS"},"data":[0,0,0,0,0,0,0,0,0,0,0,0,0,0,0,0,0,0,0,0,0,0,0,0,0,0,0,0,0,0,0,0,0,0,0,0,0,0,0,0,0,0,0,0,0,0,0,0,0,0,0,0,0,0,0,0,0,0,-0.0517,-0.0515,0,-0.0308,-0.0305,-0.0302,-0.0141,-0.014,-0.0139,-0.0138,0.0284,0.0294,0.0304,0,0,0,0,0,0,0,0,0,0,0,0,0,-0.0626,-0.0625,-0.0517,-0.0515,-0.0513,-0.0308,-0.0305,-0.0301,-0.0141,-0.014,-0.0139,-0.0138,0.028,0.0293,0.0305,0,0,0,0,0,0,0,0,0,0,0,0,0,-0.0508,-0.0625,-0.0518,-0.0413,-0.0402,-0.0309,-0.0305,-0.03,-0.0141,-0.014,-0.0139,-0.0137,0.0276,0.0291,0.0307,0.0375,0,0,0.0354,0.0361,0,0,0,0,0,0,0,0,-0.0515,-0.0504,-0.0431,-0.042,-0.0408,-0.0255,-0.0188,-0.0066,-0.0142,-0.0234,-0.0138,-0.0137,0.0118,0.0147,0.0189,0.0395,0.0413,0.0356,0.0365,0.0372,0.0376,0,0,0,0,0,0,0,-0.0524,-0.0511,-0.0428,-0.0429,-0.0415,-0.0325,-0.0308,-0.0164,-0.0059,-0.0226,-0.0215,-0.0202,0.0127,0.0173,0.0201,0.0419,0.0355,0.0369,0.0379,0.0385,0.067,0.0668,0,0,0,0,0,0,-0.0572,-0.052,-0.0434,-0.0422,-0.0466,-0.0325,-0.0305,-0.03,-0.0065,-0.0032,-0.0204,-0.0196,0.0146,0.0182,0.0216,0.0272,0.0372,0.0386,0.0395,0.0671,0.0669,0.0667,0,0,0,0,0,0,-0.0575,-0.0567,-0.0443,-0.047,-0.0449,-0.0327,-0.0321,-0.0297,-0.0251,-0.0052,-0.0013,-0.0185,0.0149,0.0195,0.0326,0.0292,0.0393,0.0407,0.0673,0.0671,0.0668,0.041,0,0,0,0,0,0,-0.058,-0.057,-0.0577,-0.0474,-0.045,-0.0407,-0.0322,-0.0294,-0.0249,-0.0236,-0.0022,0.0018,0.0153,0.0301,0.0341,0.0315,0.0419,0.0676,0.0672,0.0669,0.0421,0.0399,0.038,0,0,0,0,0,-0.0584,-0.06,-0.0579,-0.0568,-0.0466,-0.0409,-0.0388,-0.029,-0.025,-0.0241,-0.0103,0.0012,0.0308,0.0313,0.0361,0.0338,0.0677,0.0673,0.0669,0.043,0.0403,0.0381,0,0,0,0,0,0,-0.064,-0.0582,-0.0557,-0.0552,-0.05,-0.0385,-0.0364,-0.0309,-0.0195,-0.0174,0.001,0.006,0.0159,0.0282,0.0282,0.0406,0.0504,0.0509,0.0306,0.0283,0.0263,0.0271,0.0432,0,0,0,0,0,-0.0666,-0.0665,-0.0597,-0.0593,-0.0575,-0.0478,-0.0441,-0.0384,-0.0277,-0.0226,-0.0087,0.006,0.0178,0.0255,0.0388,0.0469,0.0579,0.0478,0.0457,0.0439,0.0476,0.0569,0.056,0.0654,0.0654,0.0654,0,0,-0.0684,-0.0655,-0.0651,-0.0606,-0.0552,-0.053,-0.045,-0.0411,-0.0382,-0.0194,-0.0105,0.0007,0.0185,0.0265,0.0319,0.0366,0.0459,0.0434,0.0417,0.0466,0.0564,0.0555,0.0547,0.0651,0.0652,0.0652,0,0,-0.0726,-0.0702,-0.0717,-0.0685,-0.0634,-0.0575,-0.0579,-0.0484,-0.0432,-0.035,-0.0222,-0.0141,0.006,0.0156,0.0237,0.0188,0.0349,0.022,0.0134,0.0219,0.0212,0.0208,0.0283,0.0288,0.0207,0.0206,0.0206,0,-0.0749,-0.0758,-0.0711,-0.0715,-0.0689,-0.0609,-0.0609,-0.0552,-0.0427,-0.0377,-0.0349,-0.0106,0.0008,0.0118,0.008,0.0143,0.0226,0.0202,0.0191,0.019,0.019,0.0269,0.0278,0.0194,0.0195,0.0196,0.0198,0,-0.0798,-0.0803,-0.0809,-0.0789,-0.0758,-0.0748,-0.0676,-0.0636,-0.0575,-0.0502,-0.0396,-0.0263,-0.0111,-0.0106,-0.002,0.0028,0.0094,0.0147,0.0244,0.0164,0.0253,0.0266,0.0175,0.018,0.0184,0.0187,0,0,-0.0844,-0.0846,-0.0845,-0.0846,-0.0797,-0.0772,-0.074,-0.0671,-0.0627,-0.0546,-0.0472,-0.0359,-0.0289,-0.0195,-0.0107,-0.0057,-0.0045,0.0028,0.0039,0.0089,0.0148,0.0182,0.0202,0.0007,0.0009,0.001,0.0189,0,-0.0891,-0.0929,-0.0905,-0.0914,-0.092,-0.0844,-0.0811,-0.0738,-0.066,-0.0573,-0.0467,-0.0363,-0.0322,-0.0268,-0.0218,-0.0054,-0.0009,-0.0096,0.0236,0.0246,0.0275,0.0219,0.0269,0.0433,0.0204,0.0206,0.0208,0,-0.0941,-0.0956,-0.0993,-0.0967,-0.0959,-0.0949,-0.0865,-0.0825,-0.0697,-0.0633,-0.053,-0.0417,-0.0315,-0.0285,-0.007,-0.0121,-0.0005,0.0093,0.0104,0.0256,0.0308,0.0492,0.0469,0.0628,0.0231,0.0229,0.0227,0,-0.0992,-0.1007,-0.104,-0.1034,-0.0999,-0.0985,-0.0949,-0.0843,-0.079,-0.0664,-0.0601,-0.0449,-0.035,-0.0199,-0.001,-0.0028,0.0234,0.0244,0.0385,0.0389,0.0565,0.0581,0.0739,0.039,0.039,0.0389,0.0389,0,-0.1049,-0.1066,-0.1072,-0.1086,-0.1091,-0.1042,-0.1009,-0.0947,-0.084,-0.0754,-0.0638,-0.053,-0.0322,-0.0143,0.0002,0.0244,0.0252,0.0387,0.0444,0.0469,0.0474,0.0734,0.0788,0.0396,0.0394,0.0393,0.0392,0,-0.1098,-0.1112,-0.1139,-0.1127,-0.1124,-0.1122,-0.1063,-0.1026,-0.0928,-0.081,-0.0769,-0.0564,-0.0331,-0.0121,0.0157,0.0277,0.0602,0.0569,0.0574,0.0626,0.0875,0.0912,0.1192,0.1298,0.0751,0.0753,0.0755,0,-0.1129,-0.1157,-0.1174,-0.1192,-0.1194,-0.1183,-0.1166,-0.1081,-0.1019,-0.0812,-0.0746,-0.0509,-0.0301,0.0092,0.0342,0.062,0.0731,0.0816,0.0779,0.0909,0.0994,0.1022,0.1092,0.0899,0.0902,0.0904,0.0906,0,-0.1165,-0.1176,-0.1198,-0.1239,-0.125,-0.1226,-0.1184,-0.1117,-0.0971,-0.0835,-0.0608,-0.0435,-0.0105,0.0242,0.057,0.0731,0.0939,0.0868,0.103,0.1147,0.1173,0.1294,0.0745,0.0926,0.0924,0.0922,0.0921,0.0921,-0.1174,-0.1202,-0.1233,-0.125,-0.1271,-0.1193,-0.1056,-0.0974,-0.0787,-0.0446,-0.0433,-0.0069,0.0179,0.0651,0.0819,0.118,0.1129,0.1295,0.1337,0.1359,0.1442,0.0916,0.1134,0.1133,0.1133,0.1132,0.1132,0,-0.1157,-0.1186,-0.1229,-0.1196,-0.1139,-0.1158,-0.1002,-0.0785,-0.046,-0.0255,0.0004,0.0436,0.0791,0.105,0.1441,0.1642,0.1689,0.1744,0.1814,0.1869,0.145,0.1435,0.1697,0.1697,0.1697,0.1697,0.1697,0.1696,-0.115,-0.1174,-0.1184,-0.105,-0.0988,-0.0755,-0.0581,-0.032,-0.0102,0.0379,0.0713,0.0867,0.1155,0.1661,0.2037,0.2075,0.2265,0.2246,0.2341,0.2053,0.2014,0.1977,0.1978,0.235,0.235,0.2771,0.2775,0.2778]}],[{"header":{"parameterUnit":"m.s-1","parameterCategory":2,"la1":30.2991,"la2":30.254,"lo1":-89.0895,"lo2":-89.0444,"dy":0.0017,"dx":0.0017,"nx":28,"ny":28,"refTime":"2025-07-24T21:00:00:Z","depth":"2","parameterNumber":2,"parameterNumberName":"U-component_of_CURRENTS"},"data":[0,0,0,0,0,0,0,0,0,0,0,0,0,0,0,0,0,0,0,0,0,0,0,0,0,0,0,0,0,0,0,0,0,0,0,0,0,0,0,0,0,0,0,0,0,0,0,0,0,0,0,0,0,0,0,0,0,0,-0.2679,-0.2678,0,-0.2648,-0.2647,-0.2647,-0.2716,-0.2718,-0.2721,-0.2723,-0.2769,-0.2768,-0.2767,0,0,0,0,0,0,0,0,0,0,0,0,0,-0.2657,-0.2658,-0.2679,-0.2678,-0.2678,-0.2648,-0.2647,-0.2647,-0.2716,-0.2718,-0.2721,-0.2724,-0.2769,-0.2768,-0.2767,0,0,0,0,0,0,0,0,0,0,0,0,0,-0.265,-0.2658,-0.2679,-0.2709,-0.2712,-0.2648,-0.2647,-0.2647,-0.2715,-0.2718,-0.2722,-0.2725,-0.277,-0.2768,-0.2767,-0.269,0,0,-0.2763,-0.2762,0,0,0,0,0,0,0,0,-0.265,-0.2651,-0.2705,-0.2707,-0.271,-0.269,-0.2656,-0.2665,-0.2714,-0.2713,-0.2723,-0.2727,-0.2747,-0.2748,-0.2733,-0.2693,-0.2694,-0.2763,-0.2762,-0.2761,-0.2761,0,0,0,0,0,0,0,-0.2651,-0.2652,-0.2666,-0.2704,-0.2707,-0.2676,-0.268,-0.2657,-0.2712,-0.2713,-0.2719,-0.2715,-0.275,-0.2734,-0.2735,-0.2695,-0.2763,-0.2762,-0.2761,-0.276,-0.2613,-0.261,0,0,0,0,0,0,-0.266,-0.2653,-0.2667,-0.2665,-0.2689,-0.2674,-0.2679,-0.2692,-0.2711,-0.2717,-0.2712,-0.2718,-0.2734,-0.2736,-0.2737,-0.2739,-0.2761,-0.276,-0.2759,-0.2616,-0.2613,-0.2609,0,0,0,0,0,0,-0.266,-0.2662,-0.2668,-0.2657,-0.2656,-0.2672,-0.2686,-0.269,-0.2704,-0.2709,-0.2717,-0.2727,-0.2737,-0.2739,-0.2727,-0.2739,-0.276,-0.2758,-0.262,-0.2615,-0.2611,-0.2685,0,0,0,0,0,0,-0.2659,-0.2662,-0.2662,-0.2659,-0.2658,-0.2654,-0.2683,-0.2687,-0.2695,-0.2704,-0.2723,-0.273,-0.274,-0.2728,-0.2725,-0.2737,-0.2757,-0.2624,-0.2618,-0.2612,-0.2687,-0.2684,-0.2681,0,0,0,0,0,-0.2659,-0.2648,-0.2663,-0.2663,-0.2662,-0.2653,-0.265,-0.2671,-0.2693,-0.2697,-0.27,-0.2731,-0.2689,-0.2725,-0.2722,-0.2734,-0.2627,-0.262,-0.2613,-0.2688,-0.2684,-0.2681,0,0,0,0,0,0,-0.2626,-0.2654,-0.267,-0.2666,-0.2671,-0.2667,-0.2654,-0.2673,-0.2673,-0.2684,-0.27,-0.2705,-0.2698,-0.2675,-0.2715,-0.266,-0.2657,-0.265,-0.2715,-0.2712,-0.2709,-0.2751,-0.2756,0,0,0,0,0,-0.2619,-0.2624,-0.2645,-0.2634,-0.2642,-0.2649,-0.2643,-0.2665,-0.2666,-0.2672,-0.2682,-0.2668,-0.2653,-0.2657,-0.2633,-0.2606,-0.2588,-0.2598,-0.2595,-0.2594,-0.2616,-0.2592,-0.2592,-0.2586,-0.2586,-0.2587,0,0,-0.2594,-0.261,-0.261,-0.2627,-0.2627,-0.264,-0.2656,-0.2656,-0.2673,-0.2672,-0.2682,-0.2665,-0.2638,-0.262,-0.2613,-0.2617,-0.2572,-0.2585,-0.2586,-0.2609,-0.2585,-0.2587,-0.2589,-0.2582,-0.2583,-0.2583,0,0,-0.2554,-0.2573,-0.2575,-0.259,-0.2607,-0.2619,-0.2629,-0.2641,-0.2659,-0.2649,-0.2655,-0.2651,-0.2609,-0.2617,-0.2608,-0.2562,-0.2558,-0.253,-0.2568,-0.2544,-0.2547,-0.255,-0.2497,-0.2495,-0.2533,-0.2533,-0.2533,0,-0.2524,-0.2543,-0.2565,-0.2581,-0.259,-0.2621,-0.2632,-0.2644,-0.265,-0.2655,-0.2661,-0.2615,-0.2616,-0.2611,-0.2607,-0.2571,-0.2534,-0.2605,-0.2551,-0.2553,-0.2554,-0.25,-0.2496,-0.2535,-0.2535,-0.2535,-0.2535,0,-0.2504,-0.2522,-0.2518,-0.2563,-0.2574,-0.2581,-0.2621,-0.2633,-0.2649,-0.266,-0.2655,-0.2642,-0.2623,-0.2612,-0.2611,-0.2607,-0.2569,-0.2559,-0.2586,-0.2561,-0.2502,-0.2497,-0.2539,-0.2538,-0.2538,-0.2537,0,0,-0.2433,-0.2495,-0.2496,-0.2519,-0.2572,-0.2577,-0.261,-0.2638,-0.2653,-0.2662,-0.2666,-0.2665,-0.2666,-0.2653,-0.2644,-0.2642,-0.2627,-0.2614,-0.2611,-0.2609,-0.2545,-0.2445,-0.2429,-0.2612,-0.2612,-0.2612,-0.2492,0,-0.2411,-0.2438,-0.2478,-0.2501,-0.2522,-0.257,-0.2593,-0.2626,-0.2644,-0.2652,-0.2666,-0.2657,-0.2678,-0.2666,-0.2676,-0.2637,-0.262,-0.2659,-0.2529,-0.2524,-0.248,-0.2423,-0.2272,-0.2147,-0.2487,-0.2486,-0.2486,0,-0.2388,-0.2412,-0.2434,-0.2487,-0.25,-0.2518,-0.256,-0.2585,-0.2621,-0.2632,-0.2651,-0.2652,-0.2669,-0.2672,-0.2638,-0.2656,-0.2612,-0.2584,-0.2578,-0.2467,-0.2416,-0.2225,-0.2125,-0.2477,-0.2478,-0.2478,-0.2479,0,-0.2332,-0.2382,-0.2397,-0.2417,-0.2481,-0.2492,-0.2523,-0.2568,-0.2585,-0.2616,-0.2615,-0.2637,-0.2626,-0.2607,-0.2575,-0.2597,-0.2509,-0.2519,-0.2382,-0.2373,-0.2212,-0.2188,-0.2481,-0.2481,-0.2482,-0.2482,-0.2482,0,-0.23,-0.2309,-0.2371,-0.2379,-0.2389,-0.2451,-0.2462,-0.2498,-0.2539,-0.2542,-0.2597,-0.2588,-0.2611,-0.2572,-0.255,-0.244,-0.2481,-0.2381,-0.2338,-0.2222,-0.2203,-0.2472,-0.2473,-0.2478,-0.2479,-0.2479,-0.248,0,-0.223,-0.2278,-0.2292,-0.2349,-0.2363,-0.2366,-0.242,-0.2428,-0.248,-0.2483,-0.249,-0.2533,-0.2479,-0.2468,-0.241,-0.2375,-0.2299,-0.2244,-0.2095,-0.2038,-0.2183,-0.2188,-0.2079,-0.2074,-0.207,-0.2067,-0.2065,0,-0.2195,-0.2197,-0.2247,-0.2249,-0.2269,-0.2292,-0.2305,-0.238,-0.2392,-0.2437,-0.2423,-0.2397,-0.2342,-0.2222,-0.2149,-0.2044,-0.2155,-0.1858,-0.1888,-0.2174,-0.2144,-0.2155,-0.2164,-0.1682,-0.1676,-0.1672,-0.1668,0,-0.2112,-0.2132,-0.2142,-0.2147,-0.2159,-0.2172,-0.2199,-0.2201,-0.2276,-0.2281,-0.2254,-0.2211,-0.2107,-0.1935,-0.1819,-0.1756,-0.1871,-0.1759,-0.2075,-0.1818,-0.1792,-0.1766,-0.1789,-0.1627,-0.1631,-0.1634,-0.1636,-0.1638,-0.2031,-0.2013,-0.2024,-0.2013,-0.2034,-0.2016,-0.1955,-0.2006,-0.199,-0.195,-0.2032,-0.1911,-0.1876,-0.1604,-0.1501,-0.1429,-0.1563,-0.1521,-0.1537,-0.1559,-0.1545,-0.1516,-0.1294,-0.1296,-0.1297,-0.1299,-0.13,0,-0.1905,-0.1892,-0.1885,-0.1844,-0.1789,-0.1858,-0.1846,-0.1761,-0.1677,-0.1712,-0.1664,-0.1472,-0.1345,-0.1314,-0.113,-0.1088,-0.1106,-0.1054,-0.1098,-0.1138,-0.1173,-0.1144,-0.0784,-0.0783,-0.0781,-0.078,0,0,-0.1834,-0.1769,-0.1757,-0.16,-0.1566,-0.1434,-0.1385,-0.1325,-0.1306,-0.1216,-0.1174,-0.1263,-0.127,-0.1035,-0.0972,-0.0849,-0.0986,-0.0801,-0.1213,-0.1304,-0.1338,-0.1436,-0.1433,0,0,0,0,0]},{"header":{"parameterUnit":"m.s-1","parameterCategory":2,"la1":30.2991,"la2":30.254,"lo1":-89.0895,"lo2":-89.0444,"dy":0.0017,"dx":0.0017,"nx":28,"ny":28,"refTime":"2025-07-24T21:00:00:Z","depth":"2","parameterNumber":3,"parameterNumberName":"V-component_of_CURRENTS"},"data":[0,0,0,0,0,0,0,0,0,0,0,0,0,0,0,0,0,0,0,0,0,0,0,0,0,0,0,0,0,0,0,0,0,0,0,0,0,0,0,0,0,0,0,0,0,0,0,0,0,0,0,0,0,0,0,0,0,0,-0.0448,-0.0447,0,-0.0345,-0.0344,-0.0343,-0.0279,-0.0279,-0.0278,-0.0278,-0.0114,-0.011,-0.0106,0,0,0,0,0,0,0,0,0,0,0,0,0,-0.0535,-0.0535,-0.0448,-0.0447,-0.0445,-0.0345,-0.0344,-0.0342,-0.0279,-0.0278,-0.0278,-0.0278,-0.0116,-0.0111,-0.0106,0,0,0,0,0,0,0,0,0,0,0,0,0,-0.0472,-0.0534,-0.0448,-0.0402,-0.0397,-0.0346,-0.0344,-0.0342,-0.0279,-0.0278,-0.0278,-0.0278,-0.0117,-0.0111,-0.0105,-0.0077,0,0,-0.0087,-0.0084,0,0,0,0,0,0,0,0,-0.0475,-0.0468,-0.041,-0.0405,-0.0399,-0.0325,-0.0315,-0.0251,-0.0279,-0.0323,-0.0278,-0.0277,-0.0179,-0.0168,-0.015,-0.007,-0.0063,-0.0086,-0.0082,-0.008,-0.0078,0,0,0,0,0,0,0,-0.048,-0.0472,-0.0407,-0.0409,-0.0402,-0.0368,-0.0359,-0.0302,-0.0254,-0.032,-0.0315,-0.0304,-0.0176,-0.0157,-0.0146,-0.006,-0.0086,-0.0081,-0.0077,-0.0075,0.0082,0.0083,0,0,0,0,0,0,-0.0496,-0.0477,-0.041,-0.0404,-0.0437,-0.0367,-0.0357,-0.0349,-0.0256,-0.0242,-0.0304,-0.0301,-0.0167,-0.0153,-0.014,-0.0083,-0.008,-0.0074,-0.0071,0.0082,0.0082,0.0083,0,0,0,0,0,0,-0.0499,-0.0492,-0.0414,-0.0438,-0.0426,-0.0366,-0.0358,-0.0347,-0.0327,-0.0245,-0.023,-0.0295,-0.0166,-0.0148,-0.0085,-0.0077,-0.0071,-0.0066,0.0081,0.0082,0.0083,0.0019,0,0,0,0,0,0,-0.0502,-0.0493,-0.05,-0.0439,-0.0425,-0.0389,-0.0358,-0.0345,-0.0321,-0.0316,-0.0232,-0.0216,-0.0164,-0.0095,-0.0079,-0.0068,-0.0061,0.008,0.0082,0.0082,0.0021,0.0018,0.0015,0,0,0,0,0,-0.0505,-0.0518,-0.0501,-0.0493,-0.0434,-0.0389,-0.0379,-0.0334,-0.0321,-0.0314,-0.0254,-0.0219,-0.0078,-0.009,-0.0071,-0.0059,0.008,0.0081,0.0082,0.0022,0.0018,0.0015,0,0,0,0,0,0,-0.0558,-0.0511,-0.0491,-0.0488,-0.0444,-0.0379,-0.0373,-0.0341,-0.029,-0.0285,-0.021,-0.019,-0.0132,-0.0087,-0.0102,-0.001,0.0006,0.0011,-0.0046,-0.0048,-0.0051,-0.0077,-0.0056,0,0,0,0,0,-0.0575,-0.0572,-0.0514,-0.0511,-0.0494,-0.0436,-0.0415,-0.0382,-0.0326,-0.0304,-0.0244,-0.0177,-0.0113,-0.0076,-0.0017,0.0033,0.0076,0.0054,0.0051,0.0048,0.004,0.0112,0.0114,0.0087,0.0087,0.0087,0,0,-0.0592,-0.0568,-0.0565,-0.0523,-0.0488,-0.0466,-0.0422,-0.0394,-0.0369,-0.0293,-0.0247,-0.0186,-0.0103,-0.0045,-0.0015,-0.0005,0.0079,0.005,0.0047,0.004,0.0113,0.0116,0.0118,0.0088,0.0087,0.0087,0,0,-0.0627,-0.0607,-0.0615,-0.0585,-0.054,-0.0498,-0.0493,-0.0428,-0.0394,-0.034,-0.0278,-0.0213,-0.0122,-0.0057,-0.0013,0.0006,0.0059,0.0023,-0.0006,0.0064,0.0066,0.0069,0.0123,0.0131,0.0025,0.0025,0.0025,0,-0.065,-0.0651,-0.0609,-0.0606,-0.0586,-0.0517,-0.0511,-0.0465,-0.0386,-0.0354,-0.0335,-0.0193,-0.0125,-0.0043,-0.0037,-0.0,0.0039,-0.0003,0.0059,0.0062,0.0066,0.0122,0.0131,0.0022,0.0022,0.0022,0.0023,0,-0.0684,-0.0684,-0.0686,-0.0658,-0.0631,-0.0615,-0.0546,-0.0512,-0.0463,-0.0406,-0.0323,-0.0229,-0.0146,-0.011,-0.0066,-0.0002,0.0016,0.0042,0.006,0.0065,0.0123,0.0134,0.0018,0.0019,0.002,0.002,0,0,-0.0723,-0.0713,-0.0712,-0.0712,-0.0658,-0.0636,-0.0598,-0.0533,-0.0502,-0.042,-0.037,-0.0257,-0.0209,-0.0157,-0.0087,-0.0025,0.0039,0.0009,0.0015,0.0051,0.018,0.0199,0.0213,0.0072,0.0073,0.0075,0.0208,0,-0.0755,-0.078,-0.0753,-0.0755,-0.0756,-0.069,-0.0658,-0.0592,-0.052,-0.0454,-0.0347,-0.0274,-0.0224,-0.0185,-0.0115,0.0004,0.0066,-0.0001,0.0181,0.0186,0.0193,0.0226,0.0196,0.0312,0.0219,0.0221,0.0223,0,-0.0789,-0.08,-0.0825,-0.0807,-0.0799,-0.0787,-0.0723,-0.0683,-0.0573,-0.0518,-0.0429,-0.0344,-0.0233,-0.0198,-0.0006,-0.0054,0.0048,0.0137,0.0145,0.0191,0.0226,0.0296,0.0337,0.0242,0.0241,0.0239,0.0238,0,-0.0838,-0.0842,-0.0869,-0.0863,-0.0832,-0.0826,-0.0797,-0.0707,-0.0665,-0.0559,-0.0515,-0.0377,-0.0296,-0.0159,0.002,0.0008,0.0228,0.0243,0.0357,0.0359,0.0384,0.0385,0.037,0.037,0.037,0.0369,0.0369,0,-0.0882,-0.0897,-0.0901,-0.0914,-0.0929,-0.0885,-0.0868,-0.0817,-0.0732,-0.0674,-0.0559,-0.0479,-0.0283,-0.0131,0.0013,0.0222,0.0228,0.0357,0.04,0.0361,0.0359,0.0335,0.033,0.0374,0.0373,0.0372,0.0372,0,-0.0929,-0.0935,-0.0963,-0.0958,-0.0958,-0.0968,-0.093,-0.0907,-0.0826,-0.0748,-0.0718,-0.0538,-0.0338,-0.014,0.0108,0.0223,0.0412,0.0482,0.0413,0.0445,0.0495,0.0484,0.062,0.0622,0.0624,0.0625,0.0626,0,-0.0957,-0.0982,-0.1006,-0.1028,-0.1031,-0.1036,-0.1033,-0.0965,-0.0929,-0.0771,-0.0734,-0.0532,-0.0366,-0.0012,0.0223,0.0477,0.0478,0.0586,0.0563,0.0495,0.0523,0.051,0.0498,0.0574,0.0575,0.0575,0.0576,0,-0.1,-0.1013,-0.1038,-0.109,-0.111,-0.1121,-0.1107,-0.1093,-0.0989,-0.091,-0.0755,-0.0612,-0.0258,0.0025,0.0341,0.0485,0.0538,0.0604,0.0583,0.0504,0.0459,0.0484,0.0472,0.058,0.058,0.0579,0.0579,0.0579,-0.1025,-0.1058,-0.1098,-0.1147,-0.1178,-0.12,-0.1203,-0.1164,-0.1109,-0.0973,-0.08,-0.057,-0.0264,0.0177,0.0413,0.0617,0.0618,0.0667,0.0662,0.0658,0.0617,0.0577,0.0712,0.0712,0.0712,0.0713,0.0713,0,-0.1047,-0.1092,-0.1146,-0.1208,-0.1261,-0.1256,-0.1244,-0.122,-0.1165,-0.1002,-0.0835,-0.0483,-0.0152,0.0151,0.0484,0.069,0.067,0.0714,0.065,0.0646,0.0641,0.0596,0.0688,0.0688,0.0689,0.0689,0,0,-0.106,-0.1122,-0.1161,-0.1268,-0.1316,-0.1348,-0.1344,-0.128,-0.1162,-0.1001,-0.0822,-0.0564,-0.0156,0.0069,0.0345,0.0521,0.0518,0.053,0.0531,0.0419,0.0412,0.0601,0.0525,0,0,0,0,0]}],[{"header":{"parameterUnit":"m.s-1","parameterCategory":2,"la1":30.2991,"la2":30.254,"lo1":-89.0895,"lo2":-89.0444,"dy":0.0017,"dx":0.0017,"nx":28,"ny":28,"refTime":"2025-07-24T21:00:00:Z","depth":"4","parameterNumber":2,"parameterNumberName":"U-component_of_CURRENTS"},"data":[0,0,0,0,0,0,0,0,0,0,0,0,0,0,0,0,0,0,0,0,0,0,0,0,0,0,0,0,0,0,0,0,0,0,0,0,0,0,0,0,0,0,0,0,0,0,0,0,0,0,0,0,0,0,0,0,0,0,-0.1853,-0.1853,0,-0.1825,-0.1825,-0.1825,-0.186,-0.1861,-0.1863,-0.1864,-0.1823,-0.1821,-0.1818,0,0,0,0,0,0,0,0,0,0,0,0,0,-0.1842,-0.1842,-0.1853,-0.1853,-0.1853,-0.1825,-0.1825,-0.1824,-0.186,-0.1861,-0.1863,-0.1865,-0.1824,-0.1821,-0.1818,0,0,0,0,0,0,0,0,0,0,0,0,0,-0.1833,-0.1843,-0.1853,-0.1868,-0.1869,-0.1825,-0.1825,-0.1824,-0.1859,-0.1861,-0.1864,-0.1866,-0.1825,-0.1821,-0.1818,-0.1754,0,0,-0.1807,-0.1805,0,0,0,0,0,0,0,0,-0.1833,-0.1833,-0.1866,-0.1867,-0.1868,-0.1849,-0.1806,-0.18,-0.1859,-0.1862,-0.1864,-0.1867,-0.1829,-0.1826,-0.1814,-0.1752,-0.175,-0.1806,-0.1804,-0.1803,-0.1802,0,0,0,0,0,0,0,-0.1834,-0.1834,-0.1841,-0.1865,-0.1867,-0.1843,-0.1845,-0.1805,-0.1833,-0.1862,-0.1865,-0.1862,-0.183,-0.1818,-0.1814,-0.1749,-0.1806,-0.1803,-0.1801,-0.18,-0.1783,-0.1784,0,0,0,0,0,0,-0.1842,-0.1835,-0.1842,-0.184,-0.1857,-0.1842,-0.1844,-0.1852,-0.1834,-0.1834,-0.1861,-0.1864,-0.1823,-0.1818,-0.1812,-0.1859,-0.1803,-0.1799,-0.1797,-0.1781,-0.1783,-0.1785,0,0,0,0,0,0,-0.1842,-0.1844,-0.1843,-0.1837,-0.1836,-0.1841,-0.1849,-0.1851,-0.1878,-0.1834,-0.1833,-0.1892,-0.1824,-0.1817,-0.1818,-0.1853,-0.1798,-0.1794,-0.1779,-0.1782,-0.1784,-0.1873,0,0,0,0,0,0,-0.1842,-0.1844,-0.1865,-0.1838,-0.1837,-0.1846,-0.1847,-0.1849,-0.1872,-0.1877,-0.1859,-0.1855,-0.1826,-0.1824,-0.1814,-0.1848,-0.1792,-0.1777,-0.178,-0.1783,-0.1868,-0.1879,-0.1888,0,0,0,0,0,-0.1842,-0.1853,-0.1866,-0.1868,-0.1862,-0.1847,-0.1844,-0.1853,-0.1872,-0.1886,-0.1882,-0.1858,-0.1838,-0.1821,-0.181,-0.1843,-0.1775,-0.1779,-0.1783,-0.1864,-0.1877,-0.1887,0,0,0,0,0,0,-0.1847,-0.1857,-0.1871,-0.1884,-0.1883,-0.1854,-0.1865,-0.1872,-0.1878,-0.1894,-0.1862,-0.1857,-0.1876,-0.1844,-0.1827,-0.1851,-0.1809,-0.1811,-0.1875,-0.1886,-0.1895,-0.1903,-0.1789,0,0,0,0,0,-0.186,-0.188,-0.1877,-0.1887,-0.1895,-0.1889,-0.189,-0.1898,-0.1891,-0.1898,-0.1886,-0.1878,-0.1873,-0.1871,-0.1854,-0.1849,-0.1816,-0.1871,-0.188,-0.1889,-0.189,-0.1881,-0.1889,-0.1798,-0.1798,-0.1798,0,0,-0.186,-0.187,-0.188,-0.1892,-0.1893,-0.1903,-0.1896,-0.1908,-0.1927,-0.1888,-0.1916,-0.1907,-0.1881,-0.1892,-0.1898,-0.1875,-0.1896,-0.1894,-0.1901,-0.1897,-0.1885,-0.1894,-0.1902,-0.18,-0.18,-0.1799,0,0,-0.1855,-0.1887,-0.1902,-0.1913,-0.1929,-0.1929,-0.1945,-0.1943,-0.1964,-0.1974,-0.1969,-0.1986,-0.1959,-0.196,-0.1953,-0.2002,-0.195,-0.2005,-0.2054,-0.2046,-0.2053,-0.2059,-0.202,-0.2022,-0.2008,-0.2008,-0.2008,0,-0.1858,-0.1879,-0.19,-0.1918,-0.193,-0.195,-0.1964,-0.1981,-0.1983,-0.1996,-0.2001,-0.2004,-0.1992,-0.2012,-0.2043,-0.2024,-0.1997,-0.2011,-0.2057,-0.2063,-0.2067,-0.2026,-0.2027,-0.2013,-0.2012,-0.2012,-0.2011,0,-0.1857,-0.189,-0.1898,-0.1939,-0.1956,-0.197,-0.1999,-0.2029,-0.2056,-0.2063,-0.21,-0.209,-0.209,-0.2104,-0.2087,-0.2124,-0.2087,-0.2072,-0.2026,-0.2081,-0.2035,-0.2034,-0.202,-0.2018,-0.2017,-0.2015,0,0,-0.1817,-0.1886,-0.1894,-0.192,-0.1973,-0.1977,-0.2032,-0.2065,-0.2094,-0.2126,-0.2149,-0.2181,-0.2186,-0.218,-0.2175,-0.2181,-0.2196,-0.2148,-0.2146,-0.2106,-0.2156,-0.2007,-0.1991,-0.219,-0.219,-0.2191,-0.2108,0,-0.181,-0.1848,-0.1888,-0.193,-0.1951,-0.2003,-0.2041,-0.2084,-0.2118,-0.2147,-0.2179,-0.2196,-0.2213,-0.2216,-0.2235,-0.2201,-0.22,-0.2219,-0.2111,-0.2108,-0.1965,-0.1987,-0.2193,-0.2107,-0.2106,-0.2106,-0.2106,0,-0.1793,-0.1825,-0.1866,-0.193,-0.1945,-0.198,-0.2044,-0.208,-0.2141,-0.2165,-0.221,-0.2221,-0.2256,-0.2252,-0.2244,-0.2254,-0.2219,-0.2192,-0.2188,-0.2015,-0.1956,-0.2041,-0.2103,-0.2104,-0.2104,-0.2104,-0.2104,0,-0.174,-0.1806,-0.1842,-0.1865,-0.1941,-0.1977,-0.202,-0.2086,-0.2111,-0.2176,-0.2184,-0.2237,-0.2238,-0.2237,-0.2205,-0.2223,-0.2162,-0.2169,-0.2001,-0.1989,-0.2109,-0.2104,-0.2155,-0.2155,-0.2155,-0.2155,-0.2155,0,-0.1701,-0.1733,-0.1827,-0.1843,-0.1882,-0.1951,-0.1993,-0.2043,-0.2102,-0.2109,-0.2189,-0.218,-0.2236,-0.221,-0.2195,-0.2079,-0.2151,-0.2001,-0.1959,-0.2148,-0.2148,-0.2107,-0.2103,-0.2152,-0.2153,-0.2153,-0.2154,0,-0.1629,-0.1696,-0.1738,-0.1829,-0.1858,-0.1885,-0.1965,-0.1982,-0.2055,-0.2064,-0.208,-0.2131,-0.2091,-0.2108,-0.2073,-0.2022,-0.1951,-0.189,-0.2067,-0.2037,-0.1788,-0.179,-0.1696,-0.169,-0.1685,-0.1681,-0.1677,0,-0.159,-0.1609,-0.171,-0.1731,-0.1775,-0.1831,-0.1856,-0.1946,-0.1952,-0.2004,-0.198,-0.1979,-0.1993,-0.1813,-0.1867,-0.1801,-0.179,-0.1742,-0.1801,-0.1773,-0.1742,-0.1752,-0.176,-0.1669,-0.1668,-0.1666,-0.1665,0,-0.1506,-0.1562,-0.1595,-0.1636,-0.1675,-0.1698,-0.1741,-0.1729,-0.1804,-0.1896,-0.1813,-0.1778,-0.1718,-0.1696,-0.1643,-0.1612,-0.1776,-0.169,-0.1702,-0.1757,-0.1739,-0.1716,-0.173,-0.1648,-0.165,-0.1652,-0.1653,0,-0.1441,-0.1441,-0.1491,-0.1506,-0.1553,-0.1525,-0.1574,-0.156,-0.1574,-0.1648,-0.1613,-0.1621,-0.1681,-0.1592,-0.1551,-0.1499,-0.1494,-0.1464,-0.1487,-0.1507,-0.1488,-0.1441,-0.121,0,0,0,0,0,-0.1359,-0.1334,-0.1347,-0.1338,-0.138,-0.1392,-0.1468,-0.1519,-0.1602,-0.1494,-0.1547,-0.1485,-0.1415,-0.1432,-0.1338,-0.1477,-0.1506,-0.1363,-0.1487,-0.1551,-0.1571,-0.1569,0,0,0,0,0,0,-0.1297,-0.1307,-0.1294,-0.1191,-0.1152,-0.1159,-0.12,-0.1265,-0.1218,-0.1322,-0.1288,-0.1378,-0.1333,-0.1419,-0.1292,-0.1299,-0.1345,-0.1393,-0.1389,-0.154,-0.1558,-0.1574,-0.1579,0,0,0,0,0]},{"header":{"parameterUnit":"m.s-1","parameterCategory":2,"la1":30.2991,"la2":30.254,"lo1":-89.0895,"lo2":-89.0444,"dy":0.0017,"dx":0.0017,"nx":28,"ny":28,"refTime":"2025-07-24T21:00:00:Z","depth":"4","parameterNumber":3,"parameterNumberName":"V-component_of_CURRENTS"},"data":[0,0,0,0,0,0,0,0,0,0,0,0,0,0,0,0,0,0,0,0,0,0,0,0,0,0,0,0,0,0,0,0,0,0,0,0,0,0,0,0,0,0,0,0,0,0,0,0,0,0,0,0,0,0,0,0,0,0,-0.0324,-0.0323,0,-0.0274,-0.0274,-0.0273,-0.0251,-0.0251,-0.0251,-0.0251,-0.0203,-0.0202,-0.02,0,0,0,0,0,0,0,0,0,0,0,0,0,-0.0369,-0.0369,-0.0324,-0.0323,-0.0322,-0.0274,-0.0274,-0.0273,-0.0251,-0.0251,-0.0251,-0.0251,-0.0203,-0.0202,-0.02,0,0,0,0,0,0,0,0,0,0,0,0,0,-0.0338,-0.0368,-0.0324,-0.0306,-0.0303,-0.0274,-0.0274,-0.0273,-0.0251,-0.0251,-0.0251,-0.0251,-0.0204,-0.0202,-0.02,-0.0187,0,0,-0.0194,-0.0193,0,0,0,0,0,0,0,0,-0.034,-0.0336,-0.0309,-0.0307,-0.0304,-0.0269,-0.0272,-0.0244,-0.0251,-0.0271,-0.0251,-0.0251,-0.0225,-0.0221,-0.0212,-0.0184,-0.0182,-0.0194,-0.0193,-0.0192,-0.0191,0,0,0,0,0,0,0,-0.0342,-0.0338,-0.0304,-0.0308,-0.0305,-0.0289,-0.0285,-0.0266,-0.0249,-0.0269,-0.0268,-0.0262,-0.0224,-0.0214,-0.0211,-0.0182,-0.0194,-0.0192,-0.0191,-0.019,-0.0086,-0.0085,0,0,0,0,0,0,-0.0349,-0.034,-0.0306,-0.0303,-0.0322,-0.0289,-0.0284,-0.028,-0.0249,-0.0244,-0.0262,-0.0261,-0.0217,-0.0213,-0.0209,-0.0168,-0.0192,-0.019,-0.0189,-0.0088,-0.0086,-0.0084,0,0,0,0,0,0,-0.035,-0.0346,-0.0308,-0.032,-0.0314,-0.0288,-0.0284,-0.0279,-0.0273,-0.0243,-0.0238,-0.0261,-0.0217,-0.0212,-0.0184,-0.0167,-0.0189,-0.0187,-0.009,-0.0087,-0.0085,-0.0101,0,0,0,0,0,0,-0.0352,-0.0347,-0.0356,-0.0321,-0.0314,-0.0294,-0.0283,-0.0278,-0.0269,-0.0268,-0.024,-0.0236,-0.0217,-0.0187,-0.0182,-0.0165,-0.0186,-0.0092,-0.0089,-0.0086,-0.0102,-0.0099,-0.0097,0,0,0,0,0,-0.0354,-0.0365,-0.0357,-0.0353,-0.0324,-0.0294,-0.0289,-0.0271,-0.0269,-0.0266,-0.024,-0.0237,-0.0164,-0.0184,-0.0179,-0.0161,-0.0093,-0.0089,-0.0086,-0.0104,-0.01,-0.0097,0,0,0,0,0,0,-0.039,-0.0362,-0.0353,-0.0356,-0.0329,-0.0291,-0.0293,-0.0275,-0.0253,-0.0255,-0.0226,-0.0219,-0.0185,-0.0167,-0.019,-0.0117,-0.0124,-0.0119,-0.0139,-0.0135,-0.0133,-0.0158,-0.0184,0,0,0,0,0,-0.0402,-0.0404,-0.0367,-0.037,-0.036,-0.0327,-0.0317,-0.03,-0.0271,-0.0262,-0.0239,-0.0205,-0.0164,-0.0148,-0.0117,-0.0087,-0.0068,-0.0065,-0.0062,-0.006,-0.0074,-0.0018,-0.0013,-0.0073,-0.0073,-0.0073,0,0,-0.0416,-0.0403,-0.0404,-0.0379,-0.036,-0.0344,-0.0322,-0.0307,-0.0289,-0.026,-0.0238,-0.0201,-0.0153,-0.0113,-0.0095,-0.0098,-0.0031,-0.0056,-0.0055,-0.007,-0.0014,-0.0009,-0.0004,-0.007,-0.0071,-0.0071,0,0,-0.0441,-0.0435,-0.0441,-0.0421,-0.0394,-0.0367,-0.0364,-0.0325,-0.0306,-0.0273,-0.0238,-0.0191,-0.0146,-0.0099,-0.0069,-0.0032,-0.002,-0.0017,-0.0027,0.0028,0.0033,0.0037,0.0068,0.0075,-0.0015,-0.0015,-0.0015,0,-0.046,-0.0461,-0.0437,-0.0433,-0.0423,-0.0379,-0.0375,-0.0342,-0.0298,-0.028,-0.027,-0.0176,-0.0135,-0.0071,-0.005,-0.0028,-0.0007,-0.0048,0.0029,0.0033,0.0038,0.0069,0.0077,-0.0015,-0.0015,-0.0015,-0.0015,0,-0.0478,-0.0483,-0.0485,-0.0465,-0.0449,-0.0439,-0.039,-0.037,-0.034,-0.0302,-0.0242,-0.0176,-0.0124,-0.0086,-0.0058,0.0004,0.0004,0.0022,0.0011,0.0042,0.0074,0.0083,-0.0016,-0.0015,-0.0015,-0.0015,0,0,-0.0503,-0.05,-0.0501,-0.0505,-0.0467,-0.0456,-0.0426,-0.0382,-0.0368,-0.0304,-0.0275,-0.0176,-0.0146,-0.011,-0.0057,0.0,0.0062,0.0019,0.0022,0.0032,0.0163,0.0139,0.0146,0.0089,0.009,0.0091,0.0171,0,-0.0522,-0.0541,-0.0523,-0.053,-0.0532,-0.0491,-0.047,-0.0426,-0.0379,-0.034,-0.025,-0.0203,-0.0151,-0.0127,-0.0059,0.0028,0.0084,0.0038,0.0146,0.0148,0.0109,0.0155,0.0096,0.0178,0.018,0.0181,0.0182,0,-0.0537,-0.0551,-0.0572,-0.0573,-0.057,-0.0567,-0.0538,-0.051,-0.0437,-0.0401,-0.0333,-0.0272,-0.0176,-0.0138,0.0018,-0.0019,0.0064,0.0136,0.0141,0.0125,0.0141,0.0143,0.0198,0.0197,0.0195,0.0194,0.0193,0,-0.057,-0.058,-0.0608,-0.0606,-0.0596,-0.0603,-0.0591,-0.0537,-0.0515,-0.0445,-0.0421,-0.0308,-0.0251,-0.013,0.0018,0.0016,0.0183,0.0201,0.026,0.0258,0.0259,0.0253,0.031,0.031,0.031,0.0309,0.0309,0,-0.059,-0.0611,-0.0635,-0.0649,-0.0681,-0.0655,-0.0666,-0.0635,-0.0587,-0.0556,-0.0464,-0.0411,-0.0245,-0.0128,0.0,0.015,0.0172,0.0257,0.0282,0.0252,0.0245,0.0265,0.0258,0.0312,0.0312,0.0311,0.0311,0,-0.0616,-0.063,-0.0667,-0.0689,-0.0701,-0.0725,-0.0727,-0.0724,-0.0675,-0.0634,-0.0615,-0.0482,-0.0331,-0.0167,0.0036,0.0122,0.0271,0.032,0.0259,0.0279,0.031,0.0303,0.0384,0.0383,0.0383,0.0383,0.0383,0,-0.0629,-0.0654,-0.071,-0.0744,-0.0761,-0.0792,-0.0809,-0.0776,-0.0761,-0.0666,-0.0643,-0.0504,-0.0398,-0.0136,0.0031,0.0253,0.029,0.0346,0.0344,0.0304,0.0321,0.0313,0.0306,0.0383,0.0383,0.0383,0.0383,0,-0.0653,-0.0683,-0.0719,-0.0794,-0.0837,-0.0869,-0.0886,-0.0878,-0.0819,-0.0777,-0.0649,-0.0504,-0.0337,-0.0136,0.003,0.0196,0.0295,0.0346,0.0347,0.0347,0.0305,0.0319,0.0312,0.0383,0.0383,0.0383,0.0383,0,-0.0676,-0.0715,-0.0775,-0.0836,-0.0898,-0.0931,-0.0929,-0.0892,-0.0864,-0.0745,-0.0702,-0.0507,-0.0387,-0.0164,-0.0003,0.0144,0.0183,0.022,0.0228,0.023,0.0161,0.0084,0.0118,0,0,0,0,0,-0.0692,-0.0744,-0.0808,-0.0879,-0.094,-0.0971,-0.0973,-0.0952,-0.0892,-0.0806,-0.0747,-0.0581,-0.0327,-0.0214,-0.0069,-0.0021,0.0188,0.0149,0.0228,0.0382,0.0382,0.0325,0,0,0,0,0,0,-0.0706,-0.0775,-0.0813,-0.0906,-0.0958,-0.1014,-0.1017,-0.0971,-0.0906,-0.0821,-0.068,-0.0577,-0.0329,-0.0416,-0.0079,-0.0032,0.0031,0.0279,0.0281,0.0382,0.0382,0.0382,0.0323,0,0,0,0,0]}]]